CANX-5

Last updated on Sun Dec 14 2025 00:03:49 GMT+0000 (Coordinated Universal Time)

1 40056U 14034D 25347.15963924 .00002162 00000+0 28747-3 0 9998 2 40056 98.3362 210.4135 0011621 247.7325 112.2654 14.80806290607805
UTC large
Height (km)
Speed (km/s)
/
Latitude / Longitude
Inclination (degrees)
Orbital Period (minutes)
Azimuth
Elevation
Range (km)
Doppler Factor

Next 0 passes for location: London (51.5072 / 0.1276)

Sorry there are no passes over London.